This is the latest recevied weather packets stored in our database for station/object 9W2NNS-12. If no packets are shown the sender has not sent any weather packets the latest 10 day(s).
| Time | Temp. | Humidity | Pressure | Rain* | Wind** | Luminosity | Snow |
|---|---|---|---|---|---|---|---|
| 1788061565 | 35.56° C | 43% | 1016.2 hPa | - | - | - | - |
| 1788060961 | 35.56° C | 43% | 1014.8 hPa | - | - | - | - |
| 1788060358 | 36.11° C | 42% | 1014 hPa | - | - | - | - |
| 1788059754 | 36.11° C | 43% | 1016.2 hPa | - | - | - | - |
| 1788059150 | 35.56° C | 43% | 1012.9 hPa | - | - | - | - |
| 1788055788 | 34.44° C | 45% | 1013.5 hPa | - | - | - | - |
| 1788055184 | 34.44° C | 46% | 1013.9 hPa | - | - | - | - |
| 1788054581 | 33.89° C | 47% | 1016.3 hPa | - | - | - | - |
| 1788053978 | 33.33° C | 48% | 1015.3 hPa | - | - | - | - |
| 1788053302 | 33.33° C | 49% | 1015.2 hPa | - | - | - | - |
| 1788052699 | 32.78° C | 49% | 1014.2 hPa | - | - | - | - |
| 1788052095 | 32.22° C | 49% | 1014.6 hPa | - | - | - | - |
| 1788051491 | 32.22° C | 51% | 1013.8 hPa | - | - | - | - |
| 1788049680 | 31.11° C | 52% | 1014 hPa | - | - | - | - |
| 1788049076 | 30.56° C | 53% | 1013.2 hPa | - | - | - | - |
| 1788048474 | 30.56° C | 53% | 1012.8 hPa | - | - | - | - |
| 1788047868 | 30.56° C | 53% | 1013 hPa | - | - | - | - |
| 1788047264 | 30.56° C | 52% | 1011.8 hPa | - | - | - | - |
| 1788046660 | 30.56° C | 52% | 1011.8 hPa | - | - | - | - |
| 1788046057 | 30.56° C | 51% | 1012.1 hPa | - | - | - | - |
| 1788045453 | 31.11° C | 51% | 1012.6 hPa | - | - | - | - |
| 1788044849 | 30.56° C | 52% | 1012.5 hPa | - | - | - | - |
| 1788044246 | 30.56° C | 52% | 1013.7 hPa | - | - | - | - |
| 1788043642 | 30° C | 52% | 1012.1 hPa | - | - | - | - |
| 1788042436 | 30.56° C | 52% | 1011.1 hPa | - | - | - | - |
* Rain since midnight (hover to see other rain measurements)
** Current wind speed in m/s (hover to see current wind gust speed)